Forside
METAR-TAF:

METAR-TAF

Lufthavne :

Ford Airport

Iron Mountain / Kingsford, Michigan, USA

Breddekreds: 45-48-51N, længdekreds: 088-06-32W, højde: 360 m

Aktuelle vejr

Denne rapport blev lavet for 11 minutter siden, kl. 06:54 UTC
Vind stille
Temperatur 13°C
Fugtighed 88%
Tryk 1018 hPa
Sigt: 16.1 km
Brudte skyer i en højde af 6000 ft

METAR: KIMT 060654Z AUTO 00000KT 10SM BKN060 13/11 A3007 RMK AO2 SLP182 T01280111

Tid: 03:05 (07:05 UTC)


TAF: fraværende

Vejrobservationer og prognoser fra mere end 4000 lufthavne (METAR og TAF).

De gule og røde prikker repræsenterer de meteorologiske stationer.

Flyt musen over at se navnet på stationen.

Så klik over at se vejr observationer og prognoser.

At skifte det kort: Klik på de grønne knapper med et sort kors for at zoome ind; på den grønne knap med en bindestreg for at zoome ud; eller på de grønne pile for tilstødende kort.


METAR-TAF: